| time (UTC) | temp F | wind direction | speed MPH | gust MPH | rain 1hr in | rain 24hr in | rain mn in | humidity % | barometer mb |
| 20260503224820 | 61 | 315 | 1.0 | 1.0 | 0.00 | 0.00 | 0.00 | 39 | 1014.3 |
| 20260503223820 | 61 | 315 | 2.0 | 3.0 | 0.00 | 0.00 | 0.00 | 40 | 1014.3 |
| 20260503222820 | 61 | 315 | 1.0 | 2.0 | 0.00 | 0.00 | 0.00 | 41 | 1014.3 |
| 20260503221819 | 61 | 293 | 1.0 | 3.0 | 0.00 | 0.00 | 0.00 | 40 | 1014.4 |
| 20260503220820 | 61 | 248 | 1.0 | 2.0 | 0.00 | 0.00 | 0.00 | 42 | 1014.4 |
| 20260503215819 | 61 | 248 | 2.0 | 3.0 | 0.00 | 0.00 | 0.00 | 40 | 1014.5 |
| 20260503214820 | 61 | 293 | 2.0 | 3.0 | 0.00 | 0.00 | 0.00 | 40 | 1014.4 |
| 20260503213940 | 61 | 293 | 1.0 | 2.0 | 0.00 | 0.00 | 0.00 | 40 | 1014.5 |
| 20260503212820 | 61 | 293 | 2.0 | 3.0 | 0.00 | 0.00 | 0.00 | 39 | 1014.5 |
| 20260503211820 | 61 | 315 | 1.0 | 2.0 | 0.00 | 0.00 | 0.00 | 41 | 1014.5 |
| 20260503210820 | 61 | 315 | 2.0 | 4.0 | 0.00 | 0.00 | 0.00 | 41 | 1014.4 |
| 20260503205840 | 61 | 315 | 3.0 | 4.0 | 0.00 | 0.00 | 0.00 | 42 | 1014.4 |
| 20260503204840 | 61 | 293 | 3.0 | 4.0 | 0.00 | 0.00 | 0.00 | 40 | 1014.5 |
| 20260503203819 | 62 | 338 | 2.0 | 4.0 | 0.00 | 0.00 | 0.00 | 39 | 1014.5 |
| 20260503202819 | 62 | 315 | 5.0 | 9.0 | 0.00 | 0.00 | 0.00 | 39 | 1014.6 |
| 20260503201819 | 62 | 315 | 2.0 | 4.0 | 0.00 | 0.00 | 0.00 | 38 | 1014.8 |
| 20260503200819 | 63 | 315 | 7.0 | 11.0 | 0.00 | 0.00 | 0.00 | 41 | 1014.9 |
| 20260503195819 | 64 | 315 | 2.0 | 7.0 | 0.00 | 0.00 | 0.00 | 37 | 1015.0 |
| 20260503194819 | 64 | 315 | 5.0 | 7.0 | 0.00 | 0.00 | 0.00 | 40 | 1015.3 |
| 20260503193839 | 65 | 315 | 11.0 | 16.0 | 0.00 | 0.00 | 0.00 | 41 | 1015.1 |
| 20260503192839 | 64 | 203 | 2.0 | 3.0 | 0.00 | 0.00 | 0.00 | 38 | 1015.3 |
| 20260503191819 | 65 | 293 | 4.0 | 8.0 | 0.00 | 0.00 | 0.00 | 38 | 1015.5 |
| 20260503190819 | 64 | 293 | 5.0 | 8.0 | 0.00 | 0.00 | 0.00 | 44 | 1015.5 |
| 20260503185839 | 65 | 293 | 4.0 | 8.0 | 0.00 | 0.00 | 0.00 | 44 | 1015.5 |
| 20260503184819 | 64 | 315 | 9.0 | 14.0 | 0.00 | 0.00 | 0.00 | 42 | 1015.6 |
| 20260503183819 | 64 | 293 | 4.0 | 6.0 | 0.00 | 0.00 | 0.00 | 42 | 1015.7 |
| 20260503182819 | 65 | 315 | 6.0 | 13.0 | 0.00 | 0.00 | 0.00 | 43 | 1015.9 |
| 20260503181819 | 64 | 315 | 6.0 | 10.0 | 0.00 | 0.00 | 0.00 | 44 | 1015.8 |
| 20260503180819 | 63 | 315 | 4.0 | 7.0 | 0.00 | 0.00 | 0.00 | 42 | 1015.9 |
| 20260503175819 | 63 | 270 | 3.0 | 7.0 | 0.00 | 0.00 | 0.00 | 42 | 1015.8 |
| 20260503174819 | 64 | 315 | 10.0 | 14.0 | 0.00 | 0.00 | 0.00 | 41 | 1015.9 |
| 20260503173839 | 64 | 315 | 6.0 | 9.0 | 0.00 | 0.00 | 0.00 | 43 | 1016.1 |
| 20260503172839 | 63 | 315 | 9.0 | 13.0 | 0.00 | 0.00 | 0.00 | 42 | 1016.2 |
| 20260503171819 | 63 | 315 | 8.0 | 11.0 | 0.00 | 0.00 | 0.00 | 43 | 1016.2 |
| 20260503170819 | 64 | 315 | 6.0 | 12.0 | 0.00 | 0.00 | 0.00 | 41 | 1016.3 |
| 20260503150818 | 57 | 338 | 9.0 | 12.0 | 0.00 | 0.00 | 0.00 | 48 | 1016.6 |
| 20260503130818 | 50 | 315 | 6.0 | 10.0 | 0.00 | 0.00 | 0.00 | 60 | 1016.5 |
| 20260503110818 | 46 | 315 | 9.0 | 12.0 | 0.00 | 0.00 | 0.00 | 70 | 1015.0 |
| 20260503080838 | 47 | 315 | 7.0 | 12.0 | 0.00 | 0.00 | 0.00 | 71 | 1013.3 |
| 20260503072840 | 48 | 315 | 8.0 | 12.0 | 0.00 | 0.00 | 0.00 | 68 | 1012.8 |
| 20260503071820 | 48 | 315 | 8.0 | 14.0 | 0.00 | 0.00 | 0.00 | 69 | 1012.7 |
| 20260503070820 | 48 | 315 | 8.0 | 10.0 | 0.00 | 0.00 | 0.00 | 68 | 1012.7 |
| 20260503054840 | 50 | 315 | 9.0 | 12.0 | 0.00 | 0.00 | 0.00 | 65 | 1012.7 |
| 20260503053819 | 50 | 315 | 8.0 | 13.0 | 0.00 | 0.00 | 0.00 | 65 | 1012.6 |
| 20260503052820 | 51 | 315 | 7.0 | 12.0 | 0.00 | 0.00 | 0.00 | 66 | 1012.7 |
| 20260503051819 | 51 | 338 | 7.0 | 11.0 | 0.00 | 0.00 | 0.00 | 65 | 1012.6 |
| 20260503050839 | 51 | 338 | 9.0 | 12.0 | 0.00 | 0.00 | 0.00 | 65 | 1012.4 |
| 20260503045819 | 51 | 338 | 9.0 | 12.0 | 0.00 | 0.00 | 0.00 | 66 | 1012.6 |
| 20260503044819 | 52 | 338 | 9.0 | 14.0 | 0.00 | 0.00 | 0.00 | 66 | 1012.5 |
| 20260503043819 | 52 | 338 | 9.0 | 12.0 | 0.00 | 0.00 | 0.00 | 65 | 1012.6 |
| 20260503042840 | 52 | 338 | 8.0 | 11.0 | 0.00 | 0.00 | 0.00 | 64 | 1012.6 |
| 20260503041820 | 53 | 338 | 11.0 | 16.0 | 0.00 | 0.00 | 0.00 | 63 | 1012.6 |
| 20260503040819 | 54 | 338 | 9.0 | 13.0 | 0.00 | 0.00 | 0.00 | 62 | 1012.5 |
| 20260503035819 | 54 | 338 | 9.0 | 17.0 | 0.00 | 0.00 | 0.00 | 60 | 1012.5 |
| 20260503034838 | 54 | 338 | 9.0 | 14.0 | 0.00 | 0.00 | 0.00 | 57 | 1012.5 |
| 20260503033839 | 54 | 338 | 9.0 | 14.0 | 0.00 | 0.00 | 0.00 | 58 | 1012.3 |
| 20260503032818 | 54 | 338 | 6.0 | 8.0 | 0.00 | 0.00 | 0.00 | 59 | 1012.4 |
| 20260503031819 | 54 | 338 | 6.0 | 9.0 | 0.00 | 0.00 | 0.00 | 60 | 1012.3 |
| 20260503030818 | 54 | 338 | 6.0 | 10.0 | 0.00 | 0.00 | 0.00 | 60 | 1012.4 |
| 20260503025818 | 54 | 338 | 5.0 | 6.0 | 0.00 | 0.00 | 0.00 | 59 | 1012.5 |
| 20260503024818 | 54 | 338 | 7.0 | 9.0 | 0.00 | 0.00 | 0.00 | 59 | 1012.4 |
| 20260503023818 | 54 | 338 | 6.0 | 9.0 | 0.00 | 0.00 | 0.00 | 59 | 1012.4 |
| 20260503022818 | 54 | 338 | 8.0 | 12.0 | 0.00 | 0.00 | 0.00 | 58 | 1012.3 |
| 20260503021838 | 55 | 338 | 4.0 | 6.0 | 0.00 | 0.00 | 0.00 | 58 | 1012.4 |
| 20260503020818 | 55 | 338 | 7.0 | 9.0 | 0.00 | 0.00 | 0.00 | 58 | 1012.4 |
| 20260503015818 | 55 | 338 | 6.0 | 10.0 | 0.00 | 0.00 | 0.00 | 59 | 1012.3 |
| 20260503014818 | 55 | 338 | 9.0 | 11.0 | 0.00 | 0.00 | 0.00 | 58 | 1012.4 |
| 20260503013819 | 55 | 338 | 5.0 | 8.0 | 0.00 | 0.00 | 0.00 | 59 | 1012.5 |
| 20260503012818 | 55 | 315 | 6.0 | 9.0 | 0.00 | 0.00 | 0.00 | 59 | 1012.3 |
| 20260503011838 | 55 | 338 | 5.0 | 8.0 | 0.00 | 0.00 | 0.00 | 60 | 1012.4 |
| 20260503010818 | 55 | 338 | 3.0 | 4.0 | 0.00 | 0.00 | 0.00 | 59 | 1012.3 |
| 20260503005818 | 55 | 338 | 5.0 | 8.0 | 0.00 | 0.00 | 0.00 | 58 | 1012.1 |
| 20260503004818 | 55 | 338 | 4.0 | 6.0 | 0.00 | 0.00 | 0.00 | 57 | 1012.0 |
| 20260503003819 | 55 | 338 | 3.0 | 5.0 | 0.00 | 0.00 | 0.00 | 56 | 1011.8 |
| 20260503002818 | 56 | 338 | 4.0 | 4.0 | 0.00 | 0.00 | 0.00 | 56 | 1011.6 |
| 20260503001820 | 56 | 338 | 4.0 | 5.0 | 0.00 | 0.00 | 0.00 | 54 | 1011.6 |
| 20260503000839 | 56 | 338 | 5.0 | 6.0 | 0.00 | 0.00 | 0.00 | 55 | 1011.4 |
| 20260502235818 | 56 | 338 | 4.0 | 5.0 | 0.00 | 0.00 | 0.00 | 54 | 1011.3 |
| 20260502234818 | 57 | 338 | 5.0 | 8.0 | 0.00 | 0.00 | 0.00 | 52 | 1011.3 |
| 20260502233820 | 57 | 338 | 5.0 | 8.0 | 0.00 | 0.00 | 0.00 | 51 | 1011.2 |
| 20260502232838 | 57 | 338 | 5.0 | 6.0 | 0.00 | 0.00 | 0.00 | 51 | 1011.2 |
| 20260502231818 | 58 | 338 | 7.0 | 11.0 | 0.00 | 0.00 | 0.00 | 49 | 1011.2 |
| 20260502230820 | 58 | 338 | 8.0 | 11.0 | 0.00 | 0.00 | 0.00 | 49 | 1011.1 |
| 20260502225818 | 59 | 338 | 7.0 | 9.0 | 0.00 | 0.00 | 0.00 | 48 | 1011.1 |